Hourly Weather Bolshie Verhi

Today, 16 June, Wednesday

Time Temperature Precipitation Wind Pressure Humidity
00:00 +17°C° 0.5 mm 3 mps 736 mmHg 95%
01:00 +17°C° 0 mm 2 mps 736 mmHg 95%
02:00 +16°C° 0 mm 2 mps 736 mmHg 95%
03:00 +16°C° 0 mm 2 mps 735 mmHg 95%
04:00 +17°C° 0 mm 2 mps 735 mmHg 94%
05:00 +17°C° 0 mm 2 mps 735 mmHg 94%
06:00 +18°C° 0 mm 2 mps 736 mmHg 93%
07:00 +19°C° 0 mm 3 mps 736 mmHg 88%
08:00 +21°C° 0 mm 4 mps 736 mmHg 83%
09:00 +22°C° 0 mm 4 mps 736 mmHg 78%
10:00 +23°C° 0 mm 4 mps 736 mmHg 74%
11:00 +25°C° 0 mm 4 mps 737 mmHg 70%
12:00 +26°C° 0 mm 5 mps 737 mmHg 66%
13:00 +26°C° 0.2 mm 5 mps 737 mmHg 66%
14:00 +26°C° 0.2 mm 5 mps 737 mmHg 66%
15:00 +26°C° 0.2 mm 5 mps 737 mmHg 67%
16:00 +26°C° 0.5 mm 5 mps 737 mmHg 70%
17:00 +25°C° 0.5 mm 5 mps 738 mmHg 73%
18:00 +23°C° 0.5 mm 4 mps 738 mmHg 77%
19:00 +22°C° 0 mm 4 mps 738 mmHg 82%
20:00 +20°C° 0 mm 3 mps 739 mmHg 87%
21:00 +19°C° 0 mm 3 mps 739 mmHg 92%
22:00 +18°C° 0 mm 3 mps 740 mmHg 93%
23:00 +18°C° 0 mm 3 mps 740 mmHg 94%

Tomorrow, 17 June, Thursday

Time Temperature Precipitation Wind Pressure Humidity
00:00 +18°C° 0 mm 4 mps 741 mmHg 95%
01:00 +17°C° 0 mm 3 mps 741 mmHg 95%
02:00 +16°C° 0 mm 3 mps 741 mmHg 96%
03:00 +16°C° 0 mm 3 mps 742 mmHg 96%
04:00 +16°C° 0 mm 3 mps 742 mmHg 93%
05:00 +15°C° 0 mm 4 mps 742 mmHg 91%
06:00 +17°C° 0 mm 4 mps 743 mmHg 88%
07:00 +18°C° 0 mm 4 mps 743 mmHg 81%
08:00 +19°C° 0 mm 4 mps 744 mmHg 74%
09:00 +20°C° 0 mm 5 mps 744 mmHg 66%
10:00 +21°C° 0 mm 5 mps 745 mmHg 62%
11:00 +21°C° 0 mm 5 mps 745 mmHg 58%
12:00 +22°C° 0 mm 5 mps 745 mmHg 55%
13:00 +22°C° 0 mm 5 mps 745 mmHg 54%
14:00 +22°C° 0 mm 5 mps 746 mmHg 53%
15:00 +22°C° 0 mm 5 mps 746 mmHg 53%
16:00 +22°C° 0 mm 4 mps 746 mmHg 58%
17:00 +21°C° 0 mm 4 mps 746 mmHg 63%
18:00 +21°C° 0 mm 4 mps 746 mmHg 68%
19:00 +19°C° 0 mm 3 mps 746 mmHg 72%
20:00 +17°C° 0 mm 3 mps 747 mmHg 76%
21:00 +16°C° 0 mm 3 mps 747 mmHg 79%
22:00 +14°C° 0 mm 3 mps 747 mmHg 81%
23:00 +13°C° 0 mm 3 mps 747 mmHg 82%

Day after tomorrow, 18 June, Friday

Time Temperature Precipitation Wind Pressure Humidity
00:00 +13°C° 0 mm 3 mps 747 mmHg 83%
01:00 +12°C° 0 mm 3 mps 748 mmHg 83%
02:00 +12°C° 0 mm 3 mps 748 mmHg 83%
03:00 +11°C° 0 mm 3 mps 748 mmHg 83%
04:00 +12°C° 0 mm 3 mps 748 mmHg 82%
05:00 +13°C° 0 mm 3 mps 749 mmHg 80%
06:00 +14°C° 0 mm 3 mps 749 mmHg 79%
07:00 +16°C° 0 mm 3 mps 749 mmHg 73%
08:00 +18°C° 0 mm 4 mps 750 mmHg 67%
09:00 +19°C° 0 mm 4 mps 750 mmHg 60%
10:00 +20°C° 0 mm 4 mps 750 mmHg 57%
11:00 +21°C° 0 mm 4 mps 750 mmHg 54%
12:00 +22°C° 0 mm 4 mps 750 mmHg 51%
13:00 +22°C° 0 mm 4 mps 750 mmHg 52%
14:00 +22°C° 0 mm 4 mps 750 mmHg 52%
15:00 +22°C° 0 mm 4 mps 750 mmHg 53%
16:00 +22°C° 0 mm 4 mps 750 mmHg 58%
17:00 +22°C° 0 mm 3 mps 750 mmHg 62%
18:00 +21°C° 0 mm 3 mps 750 mmHg 67%
19:00 +20°C° 0 mm 2 mps 750 mmHg 70%
20:00 +18°C° 0 mm 2 mps 750 mmHg 73%
21:00 +16°C° 0 mm 1 mps 750 mmHg 75%
22:00 +16°C° 0 mm 1 mps 751 mmHg 76%
23:00 +16°C° 0 mm 1 mps 751 mmHg 76%

19 June, Saturday

Time Temperature Precipitation Wind Pressure Humidity
00:00 +14°C° 0 mm 0 mps 751 mmHg 76%
01:00 +14°C° 0 mm 0 mps 751 mmHg 77%
02:00 +13°C° 0 mm 0 mps 751 mmHg 79%
03:00 +13°C° 0 mm 0 mps 751 mmHg 80%
04:00 +14°C° 0 mm 0 mps 752 mmHg 78%
05:00 +15°C° 0 mm 0 mps 752 mmHg 77%
06:00 +18°C° 0 mm 1 mps 752 mmHg 76%
07:00 +19°C° 0 mm 1 mps 752 mmHg 72%
08:00 +21°C° 0 mm 1 mps 752 mmHg 68%
09:00 +22°C° 0 mm 1 mps 752 mmHg 64%
10:00 +23°C° 0 mm 1 mps 752 mmHg 62%
11:00 +24°C° 0 mm 1 mps 752 mmHg 59%
12:00 +25°C° 0 mm 1 mps 752 mmHg 57%
13:00 +25°C° 0 mm 1 mps 751 mmHg 57%
14:00 +26°C° 0 mm 1 mps 751 mmHg 57%
15:00 +26°C° 0 mm 2 mps 751 mmHg 56%
16:00 +26°C° 0 mm 1 mps 751 mmHg 60%
17:00 +26°C° 0 mm 1 mps 750 mmHg 64%
18:00 +25°C° 0 mm 1 mps 750 mmHg 68%
19:00 +24°C° 0 mm 1 mps 750 mmHg 73%
20:00 +22°C° 0 mm 1 mps 750 mmHg 77%
21:00 +20°C° 0 mm 1 mps 750 mmHg 81%
22:00 +20°C° 0 mm 1 mps 750 mmHg 83%
23:00 +19°C° 0 mm 1 mps 750 mmHg 84%

20 June, Sunday

Time Temperature Precipitation Wind Pressure Humidity
00:00 +19°C° 0 mm 1 mps 750 mmHg 86%
01:00 +18°C° 0 mm 1 mps 750 mmHg 86%
02:00 +18°C° 0 mm 1 mps 750 mmHg 87%
03:00 +18°C° 0 mm 1 mps 750 mmHg 88%
04:00 +18°C° 0 mm 1 mps 750 mmHg 86%
05:00 +19°C° 0 mm 1 mps 751 mmHg 84%
06:00 +20°C° 0 mm 1 mps 751 mmHg 83%
07:00 +22°C° 0 mm 1 mps 751 mmHg 78%
08:00 +23°C° 0 mm 1 mps 750 mmHg 74%
09:00 +25°C° 0 mm 1 mps 750 mmHg 69%
10:00 +26°C° 0 mm 1 mps 750 mmHg 66%
11:00 +27°C° 0 mm 1 mps 750 mmHg 62%
12:00 +28°C° 0 mm 1 mps 750 mmHg 59%
13:00 +28°C° 0 mm 1 mps 750 mmHg 57%
14:00 +28°C° 0 mm 1 mps 749 mmHg 56%
15:00 +28°C° 0 mm 1 mps 749 mmHg 54%
16:00 +28°C° 0 mm 1 mps 749 mmHg 57%
17:00 +28°C° 0 mm 1 mps 748 mmHg 61%
18:00 +28°C° 0 mm 1 mps 748 mmHg 64%
19:00 +26°C° 0 mm 1 mps 748 mmHg 69%
20:00 +24°C° 0 mm 1 mps 748 mmHg 73%
21:00 +23°C° 0 mm 1 mps 748 mmHg 78%
22:00 +22°C° 0 mm 1 mps 748 mmHg 80%
23:00 +20°C° 0 mm 0 mps 748 mmHg 82%

21 June, Monday

Time Temperature Precipitation Wind Pressure Humidity
00:00 +19°C° 0 mm 0 mps 748 mmHg 84%
01:00 +19°C° 0 mm 0 mps 748 mmHg 85%
02:00 +18°C° 0 mm 0 mps 748 mmHg 85%
03:00 +18°C° 0 mm 0 mps 748 mmHg 86%
04:00 +19°C° 0 mm 0 mps 748 mmHg 85%
05:00 +22°C° 0 mm 1 mps 748 mmHg 83%
06:00 +23°C° 0 mm 1 mps 748 mmHg 82%
07:00 +24°C° 0 mm 1 mps 748 mmHg 77%
08:00 +23°C° 0 mm 0 mps 748 mmHg 73%
09:00 +24°C° 0 mm 0 mps 748 mmHg 69%
10:00 +27°C° 0 mm 1 mps 747 mmHg 64%
11:00 +28°C° 0 mm 1 mps 747 mmHg 60%
12:00 +29°C° 0 mm 1 mps 747 mmHg 56%
13:00 +29°C° 0 mm 1 mps 747 mmHg 54%
14:00 +29°C° 0 mm 1 mps 747 mmHg 52%
15:00 +30°C° 0 mm 2 mps 746 mmHg 51%
16:00 +29°C° 0 mm 2 mps 746 mmHg 56%
17:00 +28°C° 0 mm 1 mps 746 mmHg 61%
18:00 +28°C° 0 mm 1 mps 746 mmHg 66%
19:00 +27°C° 0 mm 1 mps 745 mmHg 67%
20:00 +26°C° 0 mm 1 mps 745 mmHg 67%
21:00 +24°C° 0 mm 1 mps 745 mmHg 68%
22:00 +24°C° 0 mm 1 mps 745 mmHg 70%
23:00 +21°C° 0 mm 0 mps 745 mmHg 72%
Show more